Regional Weather Roundup
Issued by NWS

Home | Current Version | Previous Version | Graphics & Text | Print | Product List | Glossary Off
Versions: 1 2 3 4 5 6 7 8 9 10 11 12 13 14 15 16 17 18 19 20 21 22 23 24 25 26 27 28 29 30 31 32 33 34 35 36 37 38 39 40 41 42 43 44 45 46 47 48 49 50

000
ASUS43 KTOP 052108
RWRKS

WEATHER ROUNDUP FOR KANSAS
NATIONAL WEATHER SERVICE GOODLAND KS
300 PM CST MON DEC 05 2016

NOTE:  "FAIR" INDICATES FEW OR NO CLOUDS BELOW 12,000 FEET WITH NO
SIGNIFICANT WEATHER AND/OR OBSTRUCTIONS TO VISIBILITY.

KSZ001>006-013>018-027>032-041>047-052200-
NORTHWEST KANSAS

CITY           SKY/WX    TMP DP  RH WIND       PRES   REMARKS
GOODLAND       MOSUNNY   59  21  23 NE14      29.57R
HAYS           SUNNY     55  32  41 S10       29.59F
HILL CITY      SUNNY     51  29  42 SE7       29.59R
RUSSELL        SUNNY     55  35  47 S21       29.57F
$$

KSZ061>065-074>080-084>089-052200-
SOUTHWEST KANSAS

CITY           SKY/WX    TMP DP  RH WIND       PRES   REMARKS
DODGE CITY     SUNNY     58  27  30 S21G28    29.54F
ELKHART          N/A     67  26  21 E9          N/A
GARDEN CITY    SUNNY     56  31  38 S16       29.53S
GREAT BEND     SUNNY     55  35  47 S18       29.59S
LIBERAL        SUNNY     61  30  31 S15       29.55S
PRATT          SUNNY     52  29  41 S20G29    29.59F
$$

KSZ066>073-081>083-090>101-052200-
SOUTHEAST KANSAS

CITY           SKY/WX    TMP DP  RH WIND       PRES   REMARKS
CHANUTE        MOSUNNY   51  39  63 SE17      29.74S
COFFEYVILLE    MOSUNNY   50  41  71 S10       29.75F
HUTCHINSON     SUNNY     53  34  48 S21G29    29.63F
MEDICINE LODGE   N/A     53  35  50 S16G25    29.61F
NEWTON         SUNNY     52  36  54 S21       29.64F
PARSONS        CLOUDY    49  39  68 S10G20    29.77S
WICHITA INTL   SUNNY     54  37  52 S23       29.65F
WICHITA JABRA  SUNNY     53  36  52 S17       29.65F
WICHITA MCCONL SUNNY     53  35  50 S18       29.66F
WINFIELD       SUNNY     54  36  50 S20       29.70F
$$

KSZ007>012-019>026-033>040-048>060-102>105-052200-
NORTHEAST KANSAS

CITY           SKY/WX    TMP DP  RH WIND       PRES   REMARKS
CONCORDIA      SUNNY     53  35  50 S12       29.66R
EMPORIA        SUNNY     52  36  54 S16       29.68F
LAWRENCE       SUNNY     51  38  60 SE16      29.73F
MANHATTAN      SUNNY     56  32  40 SW18G24   29.66S
MARYSVILLE     SUNNY     54  32  43 S15       29.67S
OLATHE IND     SUNNY     51  34  52 S13G22    29.74F
OLATHE EXE     SUNNY     49  34  56 S13       29.74F
SALINA         SUNNY     54  35  48 S17G29    29.64S
TOPEKA BILLARD SUNNY     51  37  58 S17       29.71F
TOPEKA FORBES  SUNNY     52  38  58 S15       29.70F
$$



USA.gov is the U.S. government's official web portal to all federal, state and local government web resources and services.